EHI
0 0 0 0 0 0 0 0 1 4 7 9 13 16 17 18 20 21 20 21 25 31 37 40 41 44 47 50 52 52 54 54 48 40 33 28 24 23 21 18 14 12 11 9
0 0 0 0 0 0 0 1 3 6 9 12 16 19 20 21 21 21 21 24 29 34 40 42 42 43 46 49 50 51 52 51 45 37 30 26 23 21 19 17 15 14 12 9
0 0 0 0 1 1 2 3 6 10 14 17 21 24 23 22 21 21 24 30 34 37 41 42 40 41 44 46 47 48 47 44 39 33 27 25 23 20 19 19 19 18 16 14
0 0 0 1 2 3 4 6 9 14 19 23 27 28 25 21 20 21 26 32 36 37 38 38 37 38 41 43 43 43 41 37 31 28 26 26 25 23 22 23 21 20 20 18
0 0 0 1 3 4 7 10 13 17 20 23 28 30 27 23 21 23 27 31 33 35 36 35 35 36 38 40 40 38 36 31 26 24 24 25 24 24 23 21 17 16 17 16
0 0 0 1 3 5 8 12 15 16 17 18 21 24 24 22 24 26 28 29 31 33 34 34 33 35 37 38 37 34 31 26 22 21 22 22 22 22 20 15 11 10 10 10
0 0 0 3 5 5 6 10 15 16 15 15 15 16 17 20 26 30 30 29 30 32 31 30 30 33 35 34 31 28 25 21 18 19 20 20 20 19 15 10 7 6 6 5
0 0 1 4 7 6 7 12 17 17 14 13 13 14 17 22 29 33 33 31 31 31 29 26 27 29 28 24 21 18 16 14 14 16 18 18 17 16 12 8 6 5 4 3
1 1 2 4 7 8 11 16 18 14 11 10 10 14 19 26 31 35 35 33 32 31 29 27 25 24 21 17 12 9 9 9 10 12 13 13 12 11 9 7 5 4 3 3
3 4 5 6 7 9 13 17 16 13 11 11 10 14 21 26 30 33 33 31 31 31 28 25 22 19 16 13 10 8 8 8 8 9 9 8 8 7 7 6 5 4 3 3
5 5 6 7 8 10 12 14 14 13 13 13 14 16 21 26 29 30 28 25 25 26 23 19 17 14 11 10 9 10 10 8 6 6 6 4 4 4 4 4 4 3 2 3
5 5 5 6 8 9 11 11 12 14 15 15 15 15 17 21 24 25 23 20 18 16 14 14 14 12 9 8 7 8 9 7 4 3 4 3 2 1 1 1 1 1 1 1
6 5 5 5 6 8 9 9 11 14 16 14 12 12 13 15 16 17 17 17 13 10 8 10 12 11 9 7 6 6 6 5 3 3 4 3 1 1 1 0 0 0 0 0
5 5 5 4 4 5 6 7 8 11 13 12 11 11 12 12 11 11 11 12 11 8 7 9 10 9 8 7 6 6 5 4 3 3 3 3 2 2 2 1 0 0 0 0
5 4 3 2 2 2 3 4 5 6 8 9 8 9 9 10 9 8 8 8 9 8 7 8 10 9 8 7 6 6 4 4 4 3 2 2 3 3 3 1 0 0 0 0
4 3 2 1 1 1 2 3 2 2 3 5 5 5 6 7 7 7 6 6 6 7 7 8 9 8 7 7 6 6 4 3 3 2 1 1 2 3 3 2 1 0 0 0
1 1 1 1 1 2 3 3 1 0 1 2 3 3 4 5 6 6 6 5 4 5 6 8 8 7 6 6 6 6 4 3 2 2 1 0 1 1 2 3 2 1 0 0
0 1 2 2 3 3 3 2 1 0 0 1 2 3 4 6 7 7 6 4 3 3 4 5 6 5 4 4 5 4 4 3 3 2 1 0 0 0 1 2 2 1 0 0
1 3 4 4 3 3 3 2 1 0 0 1 2 4 5 6 7 7 6 4 3 3 3 3 3 3 2 1 2 2 2 3 3 2 1 0 0 0 0 1 2 1 0 0
3 4 5 4 2 2 3 2 1 0 0 1 2 3 4 5 6 6 6 4 3 3 3 3 1 1 0 0 0 0 1 3 3 1 0 0 0 0 0 1 1 1 0 0
3 4 4 3 1 2 2 2 1 0 0 1 2 3 3 3 4 5 5 3 2 2 3 2 1 0 0 0 0 0 1 2 2 1 0 0 0 0 0 0 0 0 0 0
3 4 4 2 1 1 1 1 0 0 0 1 2 3 2 2 3 4 3 2 1 1 1 1 1 0 0 0 0 0 0 1 2 2 1 0 0 0 0 0 0 0 0 0
3 3 2 1 1 0 0 0 0 0 0 0 1 2 1 1 2 3 2 1 0 0 0 0 0 0 0 0 0 0 0 0 1 1 1 0 0 0 0 0 0 0 0 0
2 2 1 0 0 0 0 0 0 1 1 1 0 1 1 0 1 2 1 0 0 0 0 0 0 0 0 0 0 0 0 0 0 0 0 0 0 0 0 0 0 0 0 0
1 1 0 0 0 0 0 0 1 2 2 2 1 0 0 0 0 1 0 0 0 0 0 0 0 0 0 0 0 0 0 0 0 0 0 0 0 0 0 0 0 0 0 0
0 0 0 0 0 0 0 1 2 3 3 2 1 0 0 0 1 1 1 0 0 0 0 0 0 0 0 0 0 0 0 0 0 0 0 0 0 0 0 0 0 0 0 0
0 0 0 0 0 0 0 1 2 3 3 1 0 0 0 0 1 2 2 1 0 0 0 0 0 0 0 0 0 0 0 0 0 0 0 0 0 0 0 0 0 0 0 0
Wind_Speed
3 3 3 2 2 4 5 7 8 8 8 9 10 10 8 7 7 7 5 5 5 5 4 4 4 4 4 4 4 5 5 5 4 4 4 4 3 3 3 3 3 3 3 3
3 2 1 1 1 2 4 5 6 7 4 5 6 6 7 8 8 7 6 5 4 5 5 5 4 4 4 4 4 4 5 4 4 4 4 4 4 4 4 3 3 3 4 4
2 3 4 3 3 1 3 4 9 8 7 7 8 9 9 9 9 8 7 6 5 4 4 4 4 5 5 4 5 4 4 5 4 4 4 4 4 4 4 3 3 4 3 3
2 4 2 6 3 3 4 2 3 6 7 9 10 8 6 7 8 7 6 6 6 5 4 4 4 4 5 5 5 4 4 4 4 4 4 4 4 4 3 3 4 3 3 3
4 2 2 4 3 2 4 3 2 6 8 9 10 9 5 3 6 7 6 6 6 6 5 4 4 5 6 5 5 4 4 4 4 4 4 4 4 3 3 4 3 3 3 3
4 3 4 5 4 1 7 3 3 5 9 8 8 6 3 3 6 6 6 6 6 6 6 5 3 5 7 6 5 5 4 4 4 4 4 4 4 3 3 3 3 3 3 3
4 2 5 5 5 3 5 4 1 4 7 7 5 5 6 6 6 7 7 7 7 6 6 4 4 5 7 6 4 3 4 4 4 4 4 4 4 3 3 3 4 4 4 3
4 3 5 4 3 3 5 4 5 4 4 6 6 7 7 7 7 7 8 7 7 7 6 3 4 6 6 4 3 3 5 5 5 4 4 4 4 4 4 4 4 4 3 3
5 5 4 1 2 1 4 6 4 5 4 7 7 7 8 6 6 6 7 7 6 7 6 4 4 5 6 3 4 5 5 5 5 5 4 4 4 4 4 3 3 3 3 2
3 1 1 4 4 5 5 6 5 5 7 7 7 7 8 6 6 6 5 5 6 7 6 4 3 4 4 4 5 6 6 5 4 5 4 4 4 3 3 3 3 3 3 3
3 1 4 5 4 4 6 7 8 6 6 7 7 7 7 7 6 5 5 4 5 6 6 4 4 4 4 4 5 6 5 5 5 4 5 5 4 4 2 1 2 3 3 3
3 3 2 1 1 3 6 5 5 7 6 6 6 6 7 6 6 5 5 5 5 5 5 5 4 4 3 3 5 6 5 4 4 4 4 4 4 4 7 5 5 4 4 4
3 1 2 1 2 4 6 5 5 6 7 6 4 5 6 6 5 5 5 5 6 5 5 5 5 4 2 3 4 5 5 4 3 3 4 3 3 3 3 4 7 6 5 4
2 3 2 1 2 4 7 6 6 6 6 6 4 5 5 6 5 5 5 5 5 6 5 5 5 4 3 4 5 5 5 5 4 3 3 3 3 2 2 3 2 2 4 4
1 2 2 3 4 5 6 6 6 5 5 5 4 5 5 6 5 4 4 4 5 5 4 4 4 3 3 4 5 5 4 3 3 3 3 3 3 2 2 3 2 2 2 3
2 3 3 4 4 4 5 6 5 4 4 4 4 4 4 5 5 5 4 5 5 5 4 4 3 2 3 4 5 4 3 5 4 3 3 3 2 3 3 3 3 2 2 2
3 2 3 4 4 4 4 4 4 3 3 4 4 4 5 6 5 5 4 4 4 4 4 4 3 3 3 4 4 3 3 4 5 3 2 3 3 3 3 3 3 3 2 2
3 4 5 6 6 5 3 3 4 4 4 4 5 5 6 6 6 5 4 4 4 3 2 2 2 3 3 4 4 3 3 3 3 3 3 2 2 3 3 3 3 3 2 2
3 3 3 4 5 5 4 3 4 4 4 5 5 5 4 5 5 5 5 5 4 2 1 1 3 3 3 3 4 3 4 4 3 3 3 3 3 2 3 3 3 3 2 2
3 3 4 4 3 3 3 4 4 4 4 4 5 4 4 3 4 5 5 4 3 3 3 3 3 2 2 3 4 3 4 4 4 3 3 3 3 3 3 3 3 3 2 2
3 4 5 4 3 3 3 4 5 4 3 4 4 5 4 4 4 4 4 2 2 3 4 4 3 2 2 3 4 3 4 4 4 3 3 3 3 3 3 3 3 3 3 2
3 4 4 3 4 3 2 2 3 4 3 3 3 4 4 4 4 3 2 2 3 4 3 3 3 4 4 5 3 3 3 3 3 3 3 3 4 4 3 3 3 3 3 3
3 4 4 3 4 3 2 2 3 3 3 3 3 4 4 4 4 4 2 2 2 4 3 3 4 6 6 4 3 3 3 3 3 3 3 3 3 4 4 4 3 3 3 3
3 3 3 3 3 4 2 1 1 1 2 2 3 3 4 3 1 1 2 4 5 5 3 4 6 6 6 3 3 3 3 3 3 3 4 3 3 3 3 3 3 3 3 4
2 2 3 4 3 3 3 3 2 2 2 1 1 2 2 3 3 3 3 4 5 5 3 5 7 6 4 3 3 3 3 3 3 4 4 4 4 3 3 3 3 3 3 3
1 2 2 3 3 3 3 2 2 2 2 2 1 1 1 1 2 2 3 3 4 4 3 3 4 4 3 3 3 3 3 4 4 3 3 4 4 4 3 3 4 4 3 3
1 1 1 1 1 2 2 2 2 2 2 2 2 1 1 2 2 3 3 3 3 3 3 3 3 3 3 3 3 3 3 3 4 4 3 3 3 3 3 4 3 3 3 3
Wind_Direction
197 210 178 182 192 172 152 170 168 192 184 198 185 174 162 140 131 132 129 120 125 129 124 118 125 136 145 152 151 148 143 150 165 161 147 138 131 129 120 116 120 122 109 93
1 349 58 3 261 187 164 155 151 151 196 206 160 144 138 137 141 144 140 134 122 119 121 123 126 132 126 125 132 135 134 136 138 133 132 130 133 128 119 111 102 98 96 95
321 327 52 345 285 200 156 155 155 176 195 158 133 146 155 154 148 149 147 143 133 128 118 118 123 127 126 126 118 115 128 127 125 131 134 136 138 127 126 123 107 100 104 104
99 56 174 243 261 108 105 86 142 147 150 147 146 144 136 143 141 145 150 144 136 124 109 109 113 116 117 113 106 120 129 123 124 129 131 131 126 127 134 127 121 115 114 116
108 123 282 303 343 66 99 35 22 132 129 123 121 94 68 112 134 144 138 134 132 121 115 114 125 126 118 116 114 115 123 129 126 127 132 129 131 135 133 126 126 127 127 121
112 131 212 253 287 274 100 53 324 141 135 131 117 122 183 160 116 110 109 113 114 113 107 106 120 126 117 118 127 137 145 139 134 128 130 133 138 133 121 123 128 116 102 100
132 170 255 267 289 52 109 206 228 140 142 135 133 163 163 137 115 109 103 105 106 104 99 100 113 115 112 114 123 137 132 123 115 117 122 122 117 113 113 111 105 98 90 73
132 155 252 308 35 115 182 170 133 111 125 124 117 110 112 117 116 113 109 106 108 105 95 90 101 107 109 114 119 115 117 113 111 106 111 108 107 99 102 109 107 101 92 69
165 196 241 4 106 151 139 123 123 124 117 117 112 109 111 106 109 112 114 114 115 112 103 90 86 105 116 121 116 110 105 103 100 90 82 93 107 114 113 107 110 114 112 98
80 26 16 42 48 44 77 97 102 107 104 106 117 119 120 117 110 104 105 111 111 109 109 102 87 86 102 117 112 106 105 103 98 94 81 74 76 86 107 120 126 125 120 120
71 44 32 25 50 67 75 78 83 86 101 110 116 121 132 125 118 115 112 107 108 115 120 118 101 88 90 101 108 106 104 104 99 94 96 85 72 59 79 88 148 149 151 153
198 218 154 251 337 88 97 94 102 106 95 102 116 125 122 123 125 122 121 115 111 110 116 113 102 92 89 101 110 117 116 114 116 113 107 102 100 71 46 57 68 93 124 137
182 183 148 150 64 88 100 94 91 103 110 107 103 116 118 118 119 118 119 121 126 126 121 116 113 108 101 107 110 115 122 123 121 121 123 126 128 123 97 46 52 64 81 100
123 101 70 75 89 84 95 90 86 86 93 100 101 103 109 110 110 116 128 136 131 126 122 126 124 124 128 120 113 113 119 125 126 131 133 136 139 138 135 130 101 45 43 68
62 107 149 123 93 90 97 95 87 87 87 85 92 102 114 120 124 125 121 121 115 114 120 123 125 134 135 128 126 126 125 133 135 136 137 138 137 130 126 125 124 108 81 56
101 81 102 109 109 110 104 107 108 110 108 103 101 102 113 122 119 113 110 120 127 133 141 135 137 147 136 130 128 129 135 136 135 136 132 131 135 136 136 137 136 130 125 125
132 172 170 155 146 141 130 134 128 126 126 124 126 121 121 120 115 112 110 107 120 134 142 145 152 149 139 135 133 135 134 137 132 128 134 142 144 144 143 145 146 144 145 139
168 177 165 155 152 143 133 132 130 139 144 141 131 122 127 135 139 142 132 111 98 92 102 140 144 137 136 141 139 138 138 143 147 147 145 145 148 144 138 137 142 141 138 119
107 109 118 135 143 142 144 155 152 149 142 135 130 132 136 143 148 148 134 124 127 140 205 160 140 136 143 157 148 145 148 149 148 145 144 144 144 149 147 145 148 151 152 139
105 117 115 109 117 132 147 150 138 135 142 135 130 131 133 141 145 141 131 137 176 193 189 163 149 140 147 148 138 144 151 151 152 155 153 156 164 170 167 161 156 156 159 157
123 123 120 125 122 114 126 137 137 139 146 141 143 151 153 152 144 137 135 151 237 197 163 152 145 150 157 151 141 142 149 153 159 164 169 173 171 169 165 163 161 160 161 159
119 124 127 127 122 118 118 122 132 137 140 145 149 146 142 144 143 136 156 190 202 171 158 158 160 161 153 141 138 142 149 155 161 164 168 169 167 165 164 161 160 161 160 159
122 126 126 130 134 135 119 109 121 133 144 156 163 164 165 172 167 157 186 224 182 169 164 171 163 150 144 138 141 151 156 159 163 163 160 157 157 159 161 161 163 164 161 156
122 128 132 134 126 121 128 149 139 141 153 164 172 167 160 160 174 202 193 181 177 167 166 168 161 154 149 145 146 151 152 157 162 159 152 150 155 155 154 153 156 158 155 150
129 136 137 136 137 154 173 167 151 150 145 158 180 184 180 173 178 191 175 172 173 166 164 167 163 159 159 154 153 157 164 166 164 162 159 160 165 163 158 159 155 153 154 156
143 156 163 165 166 169 166 158 157 171 170 174 194 194 184 176 173 167 159 164 171 165 161 163 163 162 161 161 163 159 156 154 153 155 155 153 154 153 153 158 157 158 161 164
118 117 118 117 144 158 157 157 157 172 184 181 184 187 171 159 154 148 142 143 148 153 150 149 149 153 156 156 156 155 152 156 158 155 152 149 147 150 159 164 162 159 159 161